Year,Month,Day,Hour,Minute,Value (Times are PST for temperature in C)
2021,08,14,00,00,17.30
2021,08,14,00,01,17.30
2021,08,14,00,02,17.30
2021,08,14,00,03,17.30
2021,08,14,00,04,17.30
2021,08,14,00,05,17.30
2021,08,14,00,06,17.20
2021,08,14,00,07,17.20
2021,08,14,00,08,17.20
2021,08,14,00,09,17.20
2021,08,14,00,10,17.20
2021,08,14,00,11,17.20
2021,08,14,00,12,17.10
2021,08,14,00,13,17.10
2021,08,14,00,14,17.10
2021,08,14,00,15,17.10
2021,08,14,00,16,17.10
2021,08,14,00,17,17.10
2021,08,14,00,18,17.10
2021,08,14,00,19,17.10
2021,08,14,00,20,17.10
2021,08,14,00,21,17.10
2021,08,14,00,22,17.10
2021,08,14,00,23,17.10
2021,08,14,00,24,17.10
2021,08,14,00,25,17.10
2021,08,14,00,26,17.10
2021,08,14,00,27,17.10
2021,08,14,00,28,17.10
2021,08,14,00,29,17.10
2021,08,14,00,30,17.10
2021,08,14,00,31,17.10
2021,08,14,00,32,17.10
2021,08,14,00,33,17.10
2021,08,14,00,34,17.00
2021,08,14,00,35,17.00
2021,08,14,00,36,17.00
2021,08,14,00,37,16.90
2021,08,14,00,38,16.90
2021,08,14,00,39,16.90
2021,08,14,00,40,16.90
2021,08,14,00,41,16.90
2021,08,14,00,42,16.90
2021,08,14,00,43,16.90
2021,08,14,00,44,16.90
2021,08,14,00,45,16.90
2021,08,14,00,46,16.80
2021,08,14,00,47,16.80
2021,08,14,00,48,16.80
2021,08,14,00,49,16.80
2021,08,14,00,50,16.80
2021,08,14,00,51,16.80
2021,08,14,00,52,16.80
2021,08,14,00,53,16.80
2021,08,14,00,54,16.80
2021,08,14,00,55,16.80
2021,08,14,00,56,16.70
2021,08,14,00,57,16.70
2021,08,14,00,58,16.70
2021,08,14,00,59,16.70
2021,08,14,01,00,16.70
2021,08,14,01,01,16.60
2021,08,14,01,02,16.60
2021,08,14,01,03,16.60
2021,08,14,01,04,16.60
2021,08,14,01,05,16.60
2021,08,14,01,06,16.50
2021,08,14,01,07,16.50
2021,08,14,01,08,16.50
2021,08,14,01,09,16.50
2021,08,14,01,10,16.50
2021,08,14,01,11,16.50
2021,08,14,01,12,16.40
2021,08,14,01,13,16.40
2021,08,14,01,14,16.40
2021,08,14,01,15,16.40
2021,08,14,01,16,16.40
2021,08,14,01,17,16.40
2021,08,14,01,18,16.40
2021,08,14,01,19,16.40
2021,08,14,01,20,16.40
2021,08,14,01,21,16.40
2021,08,14,01,22,16.40
2021,08,14,01,23,16.40
2021,08,14,01,24,16.40
2021,08,14,01,25,16.40
2021,08,14,01,26,16.30
2021,08,14,01,27,16.30
2021,08,14,01,28,16.30
2021,08,14,01,29,16.30
2021,08,14,01,30,16.30
2021,08,14,01,31,16.30
2021,08,14,01,32,16.30
2021,08,14,01,33,16.20
2021,08,14,01,34,16.20
2021,08,14,01,35,16.20
2021,08,14,01,36,16.20
2021,08,14,01,37,16.20
2021,08,14,01,38,16.20
2021,08,14,01,39,16.20
2021,08,14,01,40,16.20
2021,08,14,01,41,16.10
2021,08,14,01,42,16.10
2021,08,14,01,43,16.10
2021,08,14,01,44,16.10
2021,08,14,01,45,16.10
2021,08,14,01,46,16.10
2021,08,14,01,47,16.10
2021,08,14,01,48,16.10
2021,08,14,01,49,16.10
2021,08,14,01,50,16.10
2021,08,14,01,51,16.10
2021,08,14,01,52,16.10
2021,08,14,01,53,16.10
2021,08,14,01,54,16.10
2021,08,14,01,55,16.10
2021,08,14,01,56,16.10
2021,08,14,01,57,16.10
2021,08,14,01,58,16.10
2021,08,14,01,59,16.10
2021,08,14,02,00,16.10
2021,08,14,02,01,16.10
2021,08,14,02,02,16.10
2021,08,14,02,03,16.10
2021,08,14,02,04,16.10
2021,08,14,02,05,16.10
2021,08,14,02,06,16.10
2021,08,14,02,07,16.10
2021,08,14,02,08,16.00
2021,08,14,02,09,16.00
2021,08,14,02,10,16.00
2021,08,14,02,11,16.00
2021,08,14,02,12,15.90
2021,08,14,02,13,15.90
2021,08,14,02,14,15.90
2021,08,14,02,15,15.90
2021,08,14,02,16,15.80
2021,08,14,02,17,15.80
2021,08,14,02,18,15.80
2021,08,14,02,19,15.80
2021,08,14,02,20,15.80
2021,08,14,02,21,15.80
2021,08,14,02,22,15.80
2021,08,14,02,23,15.80
2021,08,14,02,24,15.80
2021,08,14,02,25,15.80
2021,08,14,02,26,15.70
2021,08,14,02,27,15.70
2021,08,14,02,28,15.70
2021,08,14,02,29,15.70
2021,08,14,02,30,15.70
2021,08,14,02,31,15.70
2021,08,14,02,32,15.70
2021,08,14,02,33,15.70
2021,08,14,02,34,15.70
2021,08,14,02,35,15.70
2021,08,14,02,36,15.80
2021,08,14,02,37,15.80
2021,08,14,02,38,15.80
2021,08,14,02,39,15.80
2021,08,14,02,40,15.80
2021,08,14,02,41,15.80
2021,08,14,02,42,15.80
2021,08,14,02,43,15.80
2021,08,14,02,44,15.80
2021,08,14,02,45,15.80
2021,08,14,02,46,15.80
2021,08,14,02,47,15.90
2021,08,14,02,48,15.90
2021,08,14,02,49,15.90
2021,08,14,02,50,15.90
2021,08,14,02,51,15.90
2021,08,14,02,52,15.90
2021,08,14,02,53,15.90
2021,08,14,02,54,15.90
2021,08,14,02,55,15.90
2021,08,14,02,56,15.90
2021,08,14,02,57,15.90
2021,08,14,02,58,15.90
2021,08,14,02,59,15.90
2021,08,14,03,00,15.90
2021,08,14,03,01,15.90
2021,08,14,03,02,15.90
2021,08,14,03,03,15.90
2021,08,14,03,04,15.90
2021,08,14,03,05,15.80
2021,08,14,03,06,15.80
2021,08,14,03,07,15.80
2021,08,14,03,08,15.80
2021,08,14,03,09,15.80
2021,08,14,03,10,15.80
2021,08,14,03,11,15.80
2021,08,14,03,12,15.80
2021,08,14,03,13,15.70
2021,08,14,03,14,15.70
2021,08,14,03,15,15.70
2021,08,14,03,16,15.70
2021,08,14,03,17,15.70
2021,08,14,03,18,15.70
2021,08,14,03,19,15.70
2021,08,14,03,20,15.70
2021,08,14,03,21,15.70
2021,08,14,03,22,15.70
2021,08,14,03,23,15.70
2021,08,14,03,24,15.70
2021,08,14,03,25,15.70
2021,08,14,03,26,15.70
2021,08,14,03,27,15.70
2021,08,14,03,28,15.70
2021,08,14,03,29,15.70
2021,08,14,03,30,15.70
2021,08,14,03,31,15.70
2021,08,14,03,32,15.70
2021,08,14,03,33,15.70
2021,08,14,03,34,15.70
2021,08,14,03,35,15.70
2021,08,14,03,36,15.70
2021,08,14,03,37,15.70
2021,08,14,03,38,15.60
2021,08,14,03,39,15.60
2021,08,14,03,40,15.60
2021,08,14,03,41,15.60
2021,08,14,03,42,15.60
2021,08,14,03,43,15.60
2021,08,14,03,44,15.60
2021,08,14,03,45,15.60
2021,08,14,03,46,15.60
2021,08,14,03,47,15.60
2021,08,14,03,48,15.60
2021,08,14,03,49,15.60
2021,08,14,03,50,15.60
2021,08,14,03,51,15.60
2021,08,14,03,52,15.60
2021,08,14,03,53,15.60
2021,08,14,03,54,15.60
2021,08,14,03,55,15.60
2021,08,14,03,56,15.60
2021,08,14,03,57,15.60
2021,08,14,03,58,15.60
2021,08,14,03,59,15.60
2021,08,14,04,00,15.50
2021,08,14,04,01,15.50
2021,08,14,04,02,15.50
2021,08,14,04,03,15.40
2021,08,14,04,04,15.40
2021,08,14,04,05,15.30
2021,08,14,04,06,15.30
2021,08,14,04,07,15.20
2021,08,14,04,08,15.20
2021,08,14,04,09,15.10
2021,08,14,04,10,15.10
2021,08,14,04,11,15.00
2021,08,14,04,12,15.00
2021,08,14,04,13,14.90
2021,08,14,04,14,14.90
2021,08,14,04,15,14.90
2021,08,14,04,16,14.80
2021,08,14,04,17,14.80
2021,08,14,04,18,14.80
2021,08,14,04,19,14.80
2021,08,14,04,20,14.70
2021,08,14,04,21,14.70
2021,08,14,04,22,14.70
2021,08,14,04,23,14.70
2021,08,14,04,24,14.70
2021,08,14,04,25,14.70
2021,08,14,04,26,14.60
2021,08,14,04,27,14.60
2021,08,14,04,28,14.60
2021,08,14,04,29,14.60
2021,08,14,04,30,14.60
2021,08,14,04,31,14.60
2021,08,14,04,32,14.60
2021,08,14,04,33,14.60
2021,08,14,04,34,14.50
2021,08,14,04,35,14.50
2021,08,14,04,36,14.50
2021,08,14,04,37,14.50
2021,08,14,04,38,14.50
2021,08,14,04,39,14.40
2021,08,14,04,40,14.40
2021,08,14,04,41,14.40
2021,08,14,04,42,14.40
2021,08,14,04,43,14.40
2021,08,14,04,44,14.40
2021,08,14,04,45,14.40
2021,08,14,04,46,14.40
2021,08,14,04,47,14.40
2021,08,14,04,48,14.40
2021,08,14,04,49,14.40
2021,08,14,04,50,14.30
2021,08,14,04,51,14.30
2021,08,14,04,52,14.30
2021,08,14,04,53,14.30
2021,08,14,04,54,14.30
2021,08,14,04,55,14.30
2021,08,14,04,56,14.30
2021,08,14,04,57,14.30
2021,08,14,04,58,14.30
2021,08,14,04,59,14.30
2021,08,14,05,00,14.30
2021,08,14,05,01,14.30
2021,08,14,05,02,14.30
2021,08,14,05,03,14.30
2021,08,14,05,04,14.30
2021,08,14,05,05,14.30
2021,08,14,05,06,14.30
2021,08,14,05,07,14.30
2021,08,14,05,08,14.20
2021,08,14,05,09,14.20
2021,08,14,05,10,14.20
2021,08,14,05,11,14.20
2021,08,14,05,12,14.20
2021,08,14,05,13,14.20
2021,08,14,05,14,14.20
2021,08,14,05,15,14.20
2021,08,14,05,16,14.20
2021,08,14,05,17,14.20
2021,08,14,05,18,14.20
2021,08,14,05,19,14.20
2021,08,14,05,20,14.20
2021,08,14,05,21,14.20
2021,08,14,05,22,14.20
2021,08,14,05,23,14.20
2021,08,14,05,24,14.10
2021,08,14,05,25,14.10
2021,08,14,05,26,14.10
2021,08,14,05,27,14.10
2021,08,14,05,28,14.10
2021,08,14,05,29,14.10
2021,08,14,05,30,14.00
2021,08,14,05,31,14.00
2021,08,14,05,32,14.00
2021,08,14,05,33,14.00
2021,08,14,05,34,13.90
2021,08,14,05,35,13.90
2021,08,14,05,36,13.90
2021,08,14,05,37,13.90
2021,08,14,05,38,13.90
2021,08,14,05,39,13.90
2021,08,14,05,40,13.80
2021,08,14,05,41,13.80
2021,08,14,05,42,13.80
2021,08,14,05,43,13.80
2021,08,14,05,44,13.80
2021,08,14,05,45,13.80
2021,08,14,05,46,13.80
2021,08,14,05,47,13.80
2021,08,14,05,48,13.70
2021,08,14,05,49,13.70
2021,08,14,05,50,13.70
2021,08,14,05,51,13.70
2021,08,14,05,52,13.70
2021,08,14,05,53,13.60
2021,08,14,05,54,13.60
2021,08,14,05,55,13.60
2021,08,14,05,56,13.60
2021,08,14,05,57,13.60
2021,08,14,05,58,13.50
2021,08,14,05,59,13.50
2021,08,14,06,00,13.50
2021,08,14,06,01,13.50
2021,08,14,06,02,13.40
2021,08,14,06,03,13.40
2021,08,14,06,04,13.40
2021,08,14,06,05,13.40
2021,08,14,06,06,13.40
2021,08,14,06,07,13.40
2021,08,14,06,08,13.40
2021,08,14,06,09,13.40
2021,08,14,06,10,13.40
2021,08,14,06,11,13.40
2021,08,14,06,12,13.40
2021,08,14,06,13,13.40
2021,08,14,06,14,13.40
2021,08,14,06,15,13.40
2021,08,14,06,16,13.40
2021,08,14,06,17,13.40
2021,08,14,06,18,13.40
2021,08,14,06,19,13.40
2021,08,14,06,20,13.40
2021,08,14,06,21,13.40
2021,08,14,06,22,13.40
2021,08,14,06,23,13.40
2021,08,14,06,24,13.40
2021,08,14,06,25,13.50
2021,08,14,06,26,13.50
2021,08,14,06,27,13.50
2021,08,14,06,28,13.50
2021,08,14,06,29,13.50
2021,08,14,06,30,13.50
2021,08,14,06,31,13.50
2021,08,14,06,32,13.50
2021,08,14,06,33,13.50
2021,08,14,06,34,13.50
2021,08,14,06,35,13.50
2021,08,14,06,36,13.50
2021,08,14,06,37,13.50
2021,08,14,06,38,13.50
2021,08,14,06,39,13.60
2021,08,14,06,40,13.60
2021,08,14,06,41,13.60
2021,08,14,06,42,13.60
2021,08,14,06,43,13.60
2021,08,14,06,44,13.60
2021,08,14,06,45,13.60
2021,08,14,06,46,13.60
2021,08,14,06,47,13.60
2021,08,14,06,48,13.60
2021,08,14,06,49,13.70
2021,08,14,06,50,13.70
2021,08,14,06,51,13.70
2021,08,14,06,52,13.70
2021,08,14,06,53,13.70
2021,08,14,06,54,13.70
2021,08,14,06,55,13.70
2021,08,14,06,56,13.70
2021,08,14,06,57,13.70
2021,08,14,06,58,13.70
2021,08,14,06,59,13.70
2021,08,14,07,00,13.80
2021,08,14,07,01,13.80
2021,08,14,07,02,13.80
2021,08,14,07,03,13.80
2021,08,14,07,04,13.80
2021,08,14,07,05,13.80
2021,08,14,07,06,13.80
2021,08,14,07,07,13.90
2021,08,14,07,08,13.90
2021,08,14,07,09,13.90
2021,08,14,07,10,13.90
2021,08,14,07,11,14.00
2021,08,14,07,12,14.00
2021,08,14,07,13,14.00
2021,08,14,07,14,14.10
2021,08,14,07,15,14.10
2021,08,14,07,16,14.10
2021,08,14,07,17,14.10
2021,08,14,07,18,14.10
2021,08,14,07,19,14.20
2021,08,14,07,20,14.20
2021,08,14,07,21,14.20
2021,08,14,07,22,14.20
2021,08,14,07,23,14.20
2021,08,14,07,24,14.20
2021,08,14,07,25,14.30
2021,08,14,07,26,14.30
2021,08,14,07,27,14.30
2021,08,14,07,28,14.30
2021,08,14,07,29,14.30
2021,08,14,07,30,14.40
2021,08,14,07,31,14.40
2021,08,14,07,32,14.40
2021,08,14,07,33,14.40
2021,08,14,07,34,14.50
2021,08,14,07,35,14.50
2021,08,14,07,36,14.50
2021,08,14,07,37,14.50
2021,08,14,07,38,14.60
2021,08,14,07,39,14.60
2021,08,14,07,40,14.60
2021,08,14,07,41,14.60
2021,08,14,07,42,14.60
2021,08,14,07,43,14.60
2021,08,14,07,44,14.60
2021,08,14,07,45,14.60
2021,08,14,07,46,14.60
2021,08,14,07,47,14.60
2021,08,14,07,48,14.60
2021,08,14,07,49,14.60
2021,08,14,07,50,14.60
2021,08,14,07,51,14.60
2021,08,14,07,52,14.50
2021,08,14,07,53,14.50
2021,08,14,07,54,14.50
2021,08,14,07,55,14.50
2021,08,14,07,56,14.50
2021,08,14,07,57,14.60
2021,08,14,07,58,14.60
2021,08,14,07,59,14.60
2021,08,14,08,00,14.60
2021,08,14,08,01,14.60
2021,08,14,08,02,14.60
2021,08,14,08,03,14.60
2021,08,14,08,04,14.70
2021,08,14,08,05,14.70
2021,08,14,08,06,14.70
2021,08,14,08,07,14.70
2021,08,14,08,08,14.70
2021,08,14,08,09,14.80
2021,08,14,08,10,14.80
2021,08,14,08,11,14.80
2021,08,14,08,12,14.80
2021,08,14,08,13,14.80
2021,08,14,08,14,14.90
2021,08,14,08,15,14.90
2021,08,14,08,16,14.90
2021,08,14,08,17,15.00
2021,08,14,08,18,15.00
2021,08,14,08,19,15.10
2021,08,14,08,20,15.20
2021,08,14,08,21,15.30
2021,08,14,08,22,15.30
2021,08,14,08,23,15.40
2021,08,14,08,24,15.40
2021,08,14,08,25,15.50
2021,08,14,08,26,15.60
2021,08,14,08,27,15.70
2021,08,14,08,28,15.70
2021,08,14,08,29,15.70
2021,08,14,08,30,15.70
2021,08,14,08,31,15.70
2021,08,14,08,32,15.70
2021,08,14,08,33,15.60
2021,08,14,08,34,15.60
2021,08,14,08,35,15.60
2021,08,14,08,36,15.60
2021,08,14,08,37,15.60
2021,08,14,08,38,15.60
2021,08,14,08,39,15.60
2021,08,14,08,40,15.60
2021,08,14,08,41,15.60
2021,08,14,08,42,15.60
2021,08,14,08,43,15.60
2021,08,14,08,44,15.60
2021,08,14,08,45,15.60
2021,08,14,08,46,15.60
2021,08,14,08,47,15.60
2021,08,14,08,48,15.60
2021,08,14,08,49,15.70
2021,08,14,08,50,15.70
2021,08,14,08,51,15.80
2021,08,14,08,52,15.80
2021,08,14,08,53,15.90
2021,08,14,08,54,15.90
2021,08,14,08,55,15.90
2021,08,14,08,56,15.90
2021,08,14,08,57,15.90
2021,08,14,08,58,15.90
2021,08,14,08,59,15.90
2021,08,14,09,00,15.90
2021,08,14,09,01,16.00
2021,08,14,09,02,16.00
2021,08,14,09,03,16.10
2021,08,14,09,04,16.10
2021,08,14,09,05,16.20
2021,08,14,09,06,16.20
2021,08,14,09,07,16.30
2021,08,14,09,08,16.30
2021,08,14,09,09,16.40
2021,08,14,09,10,16.50
2021,08,14,09,11,16.50
2021,08,14,09,12,16.60
2021,08,14,09,13,16.70
2021,08,14,09,14,16.70
2021,08,14,09,15,16.70
2021,08,14,09,16,16.80
2021,08,14,09,17,16.80
2021,08,14,09,18,16.80
2021,08,14,09,19,16.80
2021,08,14,09,20,16.80
2021,08,14,09,21,16.80
2021,08,14,09,22,16.80
2021,08,14,09,23,16.80
2021,08,14,09,24,16.80
2021,08,14,09,25,16.80
2021,08,14,09,26,16.80
2021,08,14,09,27,16.90
2021,08,14,09,28,17.00
2021,08,14,09,29,17.10
2021,08,14,09,30,17.10
2021,08,14,09,31,17.20
2021,08,14,09,32,17.20
2021,08,14,09,33,17.30
2021,08,14,09,34,17.30
2021,08,14,09,35,17.40
2021,08,14,09,36,17.40
2021,08,14,09,37,17.50
2021,08,14,09,38,17.60
2021,08,14,09,39,17.60
2021,08,14,09,40,17.70
2021,08,14,09,41,17.80
2021,08,14,09,42,18.00
2021,08,14,09,43,18.10
2021,08,14,09,44,18.20
2021,08,14,09,45,18.30
2021,08,14,09,46,18.30
2021,08,14,09,47,18.40
2021,08,14,09,48,18.50
2021,08,14,09,49,18.60
2021,08,14,09,50,18.70
2021,08,14,09,51,18.80
2021,08,14,09,52,18.90
2021,08,14,09,53,19.00
2021,08,14,09,54,19.10
2021,08,14,09,55,19.20
2021,08,14,09,56,19.30
2021,08,14,09,57,19.40
2021,08,14,09,58,19.60
2021,08,14,09,59,19.70
2021,08,14,10,00,19.80
2021,08,14,10,01,19.90
2021,08,14,10,02,20.10
2021,08,14,10,03,20.20
2021,08,14,10,04,20.30
2021,08,14,10,05,20.40
2021,08,14,10,06,20.60
2021,08,14,10,07,20.70
2021,08,14,10,08,20.80
2021,08,14,10,09,20.90
2021,08,14,10,10,21.00
2021,08,14,10,11,21.10
2021,08,14,10,12,21.20
2021,08,14,10,13,21.20
2021,08,14,10,14,21.30
2021,08,14,10,15,21.30
2021,08,14,10,16,21.40
2021,08,14,10,17,21.50
2021,08,14,10,18,21.60
2021,08,14,10,19,21.70
2021,08,14,10,20,21.70
2021,08,14,10,21,21.80
2021,08,14,10,22,21.80
2021,08,14,10,23,21.80
2021,08,14,10,24,21.90
2021,08,14,10,25,21.90
2021,08,14,10,26,21.90
2021,08,14,10,27,21.90
2021,08,14,10,28,21.90
2021,08,14,10,29,21.90
2021,08,14,10,30,21.90
2021,08,14,10,31,21.90
2021,08,14,10,32,21.90
2021,08,14,10,33,21.80
2021,08,14,10,34,21.80
2021,08,14,10,35,21.80
2021,08,14,10,36,21.80
2021,08,14,10,37,21.80
2021,08,14,10,38,21.80
2021,08,14,10,39,21.90
2021,08,14,10,40,21.90
2021,08,14,10,41,21.80
2021,08,14,10,42,21.80
2021,08,14,10,43,21.80
2021,08,14,10,44,21.80
2021,08,14,10,45,21.90
2021,08,14,10,46,21.90
2021,08,14,10,47,21.90
2021,08,14,10,48,21.90
2021,08,14,10,49,21.90
2021,08,14,10,50,21.90
2021,08,14,10,51,21.70
2021,08,14,10,52,21.60
2021,08,14,10,53,21.60
2021,08,14,10,54,21.60
2021,08,14,10,55,21.60
2021,08,14,10,56,21.60
2021,08,14,10,57,21.70
2021,08,14,10,58,21.70
2021,08,14,10,59,21.70
2021,08,14,11,00,21.80
2021,08,14,11,01,21.80
2021,08,14,11,02,21.90
2021,08,14,11,03,21.90
2021,08,14,11,04,22.00
2021,08,14,11,05,22.10
2021,08,14,11,06,22.10
2021,08,14,11,07,22.20
2021,08,14,11,08,22.20
2021,08,14,11,09,22.30
2021,08,14,11,10,22.30
2021,08,14,11,11,22.30
2021,08,14,11,12,22.30
2021,08,14,11,13,22.30
2021,08,14,11,14,22.30
2021,08,14,11,15,22.30
2021,08,14,11,16,22.30
2021,08,14,11,17,22.20
2021,08,14,11,18,22.30
2021,08,14,11,19,22.30
2021,08,14,11,20,22.30
2021,08,14,11,21,22.30
2021,08,14,11,22,22.30
2021,08,14,11,23,22.30
2021,08,14,11,24,22.40
2021,08,14,11,25,22.40
2021,08,14,11,26,22.40
2021,08,14,11,27,22.50
2021,08,14,11,28,22.60
2021,08,14,11,29,22.60
2021,08,14,11,30,22.60
2021,08,14,11,31,22.70
2021,08,14,11,32,22.70
2021,08,14,11,33,22.70
2021,08,14,11,34,22.70
2021,08,14,11,35,22.80
2021,08,14,11,36,22.70
2021,08,14,11,37,22.50
2021,08,14,11,38,22.40
2021,08,14,11,39,22.30
2021,08,14,11,40,22.20
2021,08,14,11,41,22.20
2021,08,14,11,42,22.10
2021,08,14,11,43,22.00
2021,08,14,11,44,22.00
2021,08,14,11,45,21.90
2021,08,14,11,46,21.90
2021,08,14,11,47,21.80
2021,08,14,11,48,21.80
2021,08,14,11,49,21.80
2021,08,14,11,50,21.70
2021,08,14,11,51,21.70
2021,08,14,11,52,21.70
2021,08,14,11,53,21.70
2021,08,14,11,54,21.70
2021,08,14,11,55,21.70
2021,08,14,11,56,21.70
2021,08,14,11,57,21.70
2021,08,14,11,58,21.80
2021,08,14,11,59,21.90
2021,08,14,12,00,21.90
2021,08,14,12,01,21.90
2021,08,14,12,02,21.80
2021,08,14,12,03,21.80
2021,08,14,12,04,21.70
2021,08,14,12,05,21.70
2021,08,14,12,06,21.80
2021,08,14,12,07,21.80
2021,08,14,12,08,21.90
2021,08,14,12,09,22.00
2021,08,14,12,10,22.10
2021,08,14,12,11,22.20
2021,08,14,12,12,22.30
2021,08,14,12,13,22.30
2021,08,14,12,14,22.30
2021,08,14,12,15,22.40
2021,08,14,12,16,22.50
2021,08,14,12,17,22.60
2021,08,14,12,18,22.70
2021,08,14,12,19,22.70
2021,08,14,12,20,22.80
2021,08,14,12,21,22.80
2021,08,14,12,22,22.80
2021,08,14,12,23,22.90
2021,08,14,12,24,23.00
2021,08,14,12,25,23.00
2021,08,14,12,26,23.10
2021,08,14,12,27,23.20
2021,08,14,12,28,23.30
2021,08,14,12,29,23.30
2021,08,14,12,30,23.40
2021,08,14,12,31,23.40
2021,08,14,12,32,23.40
2021,08,14,12,33,23.40
2021,08,14,12,34,23.40
2021,08,14,12,35,23.50
2021,08,14,12,36,23.40
2021,08,14,12,37,23.20
2021,08,14,12,38,23.00
2021,08,14,12,39,22.80
2021,08,14,12,40,22.70
2021,08,14,12,41,22.60
2021,08,14,12,42,22.50
2021,08,14,12,43,22.40
2021,08,14,12,44,22.30
2021,08,14,12,45,22.20
2021,08,14,12,46,22.10
2021,08,14,12,47,22.10
2021,08,14,12,48,22.00
2021,08,14,12,49,22.00
2021,08,14,12,50,21.90
2021,08,14,12,51,21.80
2021,08,14,12,52,21.80
2021,08,14,12,53,21.80
2021,08,14,12,54,21.80
2021,08,14,12,55,21.80
2021,08,14,12,56,21.80
2021,08,14,12,57,21.80
2021,08,14,12,58,21.90
2021,08,14,12,59,21.90
2021,08,14,13,00,22.00
2021,08,14,13,01,22.10
2021,08,14,13,02,22.30
2021,08,14,13,03,22.30
2021,08,14,13,04,22.50
2021,08,14,13,05,22.50
2021,08,14,13,06,22.70
2021,08,14,13,07,22.80
2021,08,14,13,08,22.90
2021,08,14,13,09,23.10
2021,08,14,13,10,23.20
2021,08,14,13,11,23.30
2021,08,14,13,12,23.50
2021,08,14,13,13,23.70
2021,08,14,13,14,23.80
2021,08,14,13,15,23.90
2021,08,14,13,16,24.00
2021,08,14,13,17,24.10
2021,08,14,13,18,24.10
2021,08,14,13,19,24.10
2021,08,14,13,20,24.00
2021,08,14,13,21,23.90
2021,08,14,13,22,23.90
2021,08,14,13,23,23.80
2021,08,14,13,24,23.80
2021,08,14,13,25,23.80
2021,08,14,13,26,23.90
2021,08,14,13,27,24.00
2021,08,14,13,28,24.10
2021,08,14,13,29,24.10
2021,08,14,13,30,24.20
2021,08,14,13,31,24.20
2021,08,14,13,32,24.30
2021,08,14,13,33,24.40
2021,08,14,13,34,24.50
2021,08,14,13,35,24.60
2021,08,14,13,36,24.70
2021,08,14,13,37,24.80
2021,08,14,13,38,24.80
2021,08,14,13,39,24.90
2021,08,14,13,40,24.90
2021,08,14,13,41,24.80
2021,08,14,13,42,24.90
2021,08,14,13,43,24.90
2021,08,14,13,44,24.90
2021,08,14,13,45,24.90
2021,08,14,13,46,24.90
2021,08,14,13,47,24.90
2021,08,14,13,48,24.90
2021,08,14,13,49,24.90
2021,08,14,13,50,24.80
2021,08,14,13,51,24.80
2021,08,14,13,52,24.90
2021,08,14,13,53,25.00
2021,08,14,13,54,25.10
2021,08,14,13,55,25.10
2021,08,14,13,56,25.00
2021,08,14,13,57,25.00
2021,08,14,13,58,25.10
2021,08,14,13,59,25.10
2021,08,14,14,00,25.10
2021,08,14,14,01,25.10
2021,08,14,14,02,25.10
2021,08,14,14,03,25.00
2021,08,14,14,04,24.90
2021,08,14,14,05,24.90
2021,08,14,14,06,24.90
2021,08,14,14,07,24.90
2021,08,14,14,08,24.90
2021,08,14,14,09,25.00
2021,08,14,14,10,25.10
2021,08,14,14,11,25.10
2021,08,14,14,12,25.20
2021,08,14,14,13,25.30
2021,08,14,14,14,25.30
2021,08,14,14,15,25.40
2021,08,14,14,16,25.30
2021,08,14,14,17,25.30
2021,08,14,14,18,25.20
2021,08,14,14,19,25.10
2021,08,14,14,20,25.10
2021,08,14,14,21,25.10
2021,08,14,14,22,25.10
2021,08,14,14,23,25.20
2021,08,14,14,24,25.20
2021,08,14,14,25,25.20
2021,08,14,14,26,25.10
2021,08,14,14,27,25.10
2021,08,14,14,28,25.00
2021,08,14,14,29,25.00
2021,08,14,14,30,25.00
2021,08,14,14,31,24.90
2021,08,14,14,32,24.90
2021,08,14,14,33,24.90
2021,08,14,14,34,24.90
2021,08,14,14,35,24.90
2021,08,14,14,36,24.80
2021,08,14,14,37,24.80
2021,08,14,14,38,24.80
2021,08,14,14,39,24.80
2021,08,14,14,40,24.90
2021,08,14,14,41,24.90
2021,08,14,14,42,24.90
2021,08,14,14,43,24.90
2021,08,14,14,44,24.90
2021,08,14,14,45,24.90
2021,08,14,14,46,25.00
2021,08,14,14,47,25.00
2021,08,14,14,48,25.10
2021,08,14,14,49,25.00
2021,08,14,14,50,24.90
2021,08,14,14,51,24.80
2021,08,14,14,52,24.80
2021,08,14,14,53,24.80
2021,08,14,14,54,24.80
2021,08,14,14,55,24.90
2021,08,14,14,56,25.00
2021,08,14,14,57,25.00
2021,08,14,14,58,25.10
2021,08,14,14,59,25.10
2021,08,14,15,00,25.10
2021,08,14,15,01,25.10
2021,08,14,15,02,25.10
2021,08,14,15,03,25.10
2021,08,14,15,04,25.10
2021,08,14,15,05,25.10
2021,08,14,15,06,25.10
2021,08,14,15,07,25.00
2021,08,14,15,08,24.80
2021,08,14,15,09,24.70
2021,08,14,15,10,24.60
2021,08,14,15,11,24.60
2021,08,14,15,12,24.60
2021,08,14,15,13,24.60
2021,08,14,15,14,24.70
2021,08,14,15,15,24.80
2021,08,14,15,16,24.80
2021,08,14,15,17,24.90
2021,08,14,15,18,25.00
2021,08,14,15,19,25.00
2021,08,14,15,20,25.10
2021,08,14,15,21,25.10
2021,08,14,15,22,25.10
2021,08,14,15,23,25.10
2021,08,14,15,24,25.10
2021,08,14,15,25,25.10
2021,08,14,15,26,25.10
2021,08,14,15,27,25.20
2021,08,14,15,28,25.20
2021,08,14,15,29,25.20
2021,08,14,15,30,25.20
2021,08,14,15,31,25.20
2021,08,14,15,32,25.30
2021,08,14,15,33,25.30
2021,08,14,15,34,25.30
2021,08,14,15,35,25.20
2021,08,14,15,36,25.10
2021,08,14,15,37,24.90
2021,08,14,15,38,24.80
2021,08,14,15,39,24.70
2021,08,14,15,40,24.50
2021,08,14,15,41,24.50
2021,08,14,15,42,24.50
2021,08,14,15,43,24.50
2021,08,14,15,44,24.50
2021,08,14,15,45,24.50
2021,08,14,15,46,24.60
2021,08,14,15,47,24.60
2021,08,14,15,48,24.70
2021,08,14,15,49,24.80
2021,08,14,15,50,24.90
2021,08,14,15,51,24.90
2021,08,14,15,52,25.00
2021,08,14,15,53,25.00
2021,08,14,15,54,25.10
2021,08,14,15,55,25.10
2021,08,14,15,56,25.10
2021,08,14,15,57,25.10
2021,08,14,15,58,25.00
2021,08,14,15,59,24.90
2021,08,14,16,00,24.80
2021,08,14,16,01,24.80
2021,08,14,16,02,24.80
2021,08,14,16,03,24.90
2021,08,14,16,04,24.90
2021,08,14,16,05,25.00
2021,08,14,16,06,25.00
2021,08,14,16,07,25.10
2021,08,14,16,08,25.10
2021,08,14,16,09,25.10
2021,08,14,17,04,24.60
2021,08,14,17,05,24.70
2021,08,14,17,06,24.70
2021,08,14,17,07,24.80
2021,08,14,17,08,24.90
2021,08,14,17,09,25.00
2021,08,14,17,10,25.00
2021,08,14,17,11,25.10
2021,08,14,17,12,25.10
2021,08,14,17,13,25.10
2021,08,14,17,14,25.20
2021,08,14,17,15,25.20
2021,08,14,17,16,25.30
2021,08,14,17,17,25.40
2021,08,14,17,18,25.40
2021,08,14,17,19,25.50
2021,08,14,17,20,25.50
2021,08,14,17,21,25.60
2021,08,14,17,22,25.70
2021,08,14,17,23,25.70
2021,08,14,17,24,25.80
2021,08,14,17,25,25.80
2021,08,14,17,26,25.80
2021,08,14,17,27,25.80
2021,08,14,17,28,25.80
2021,08,14,17,29,25.90
2021,08,14,17,30,25.90
2021,08,14,17,31,25.90
2021,08,14,17,32,26.00
2021,08,14,17,33,26.00
2021,08,14,17,34,26.10
2021,08,14,17,35,26.10
2021,08,14,17,36,26.10
2021,08,14,17,37,26.10
2021,08,14,17,38,26.10
2021,08,14,17,39,26.10
2021,08,14,17,40,26.10
2021,08,14,17,41,26.10
2021,08,14,17,42,26.10
2021,08,14,17,43,26.20
2021,08,14,17,44,26.20
2021,08,14,17,45,26.20
2021,08,14,17,46,26.20
2021,08,14,17,47,26.20
2021,08,14,17,48,26.20
2021,08,14,17,49,26.20
2021,08,14,17,50,26.20
2021,08,14,17,51,26.20
2021,08,14,17,52,26.20
2021,08,14,17,53,26.20
2021,08,14,17,54,26.20
2021,08,14,17,55,26.20
2021,08,14,17,56,26.20
2021,08,14,17,57,26.20
2021,08,14,17,58,26.20
2021,08,14,17,59,26.20
2021,08,14,18,00,26.20
2021,08,14,18,01,26.20
2021,08,14,18,02,26.30
2021,08,14,18,03,26.20
2021,08,14,18,04,26.20
2021,08,14,18,05,26.20
2021,08,14,18,06,26.20
2021,08,14,18,07,26.10
2021,08,14,18,08,26.10
2021,08,14,18,09,26.10
2021,08,14,18,10,26.00
2021,08,14,18,11,25.90
2021,08,14,18,12,25.90
2021,08,14,18,13,25.90